timestamp,surface_pressure_avg,surface_temp_avg,battery_voltage,lat,long
2022-11-16 00:09:00+00:00,259.3098,8.7,12.65,47.84626,-54.09684
2022-11-16 00:19:00+00:00,262.6797,8.66,12.65,47.84626,-54.09684
2022-11-16 00:29:00+00:00,262.1047,8.6,12.65,47.84626,-54.09684
2022-11-16 00:39:00+00:00,258.4864,8.58,12.65,47.84626,-54.09684
2022-11-16 00:49:00+00:00,260.0164,8.59,12.65,47.84626,-54.09684
2022-11-16 00:59:00+00:00,266.0031,8.6,12.65,47.84626,-54.09684
2022-11-16 01:09:00+00:00,267.2147,8.68,12.65,47.84626,-54.09684
2022-11-16 01:19:01+00:00,266.5531,8.68,12.65,47.84626,-54.09684
2022-11-16 01:29:01+00:00,271.0148,8.67,12.65,47.84626,-54.09684
2022-11-16 01:39:01+00:00,277.0464,8.7,12.65,47.84626,-54.09684
2022-11-16 01:49:01+00:00,279.1547,8.67,12.65,47.84626,-54.09684
2022-11-16 01:59:01+00:00,280.3297,8.6,12.65,47.84626,-54.09684
2022-11-16 02:09:01+00:00,283.3497,8.66,12.65,47.84626,-54.09684
2022-11-16 02:19:01+00:00,289.0897,8.77,12.65,47.84626,-54.09684
2022-11-16 02:29:01+00:00,292.623,8.8,12.65,47.84626,-54.09684
2022-11-16 02:39:01+00:00,292.5514,8.8,12.65,47.84626,-54.09684
2022-11-16 02:49:01+00:00,295.408,8.8,12.65,47.84626,-54.09684
2022-11-16 02:59:01+00:00,299.1164,8.8,12.65,47.84626,-54.09684
2022-11-16 03:09:01+00:00,300.5697,8.8,12.65,47.84626,-54.09684
2022-11-16 03:19:01+00:00,299.3647,8.8,12.57,47.84626,-54.09684
2022-11-16 03:29:01+00:00,300.108,8.8,12.57,47.84626,-54.09684
2022-11-16 03:39:01+00:00,303.7313,8.8,12.57,47.84626,-54.09684
2022-11-16 03:49:01+00:00,301.4397,8.8,12.57,47.84626,-54.09684
2022-11-16 03:59:01+00:00,298.6297,8.8,12.57,47.84626,-54.09684
2022-11-16 04:09:01+00:00,298.6897,8.8,12.57,47.84626,-54.09684
2022-11-16 04:19:00+00:00,303.83299999999997,8.8,12.57,47.84626,-54.09684
2022-11-16 04:29:00+00:00,305.6429,8.8,12.57,47.84626,-54.09684
2022-11-16 04:39:00+00:00,304.2679,8.8,12.57,47.84626,-54.09684
2022-11-16 04:49:00+00:00,305.4464,8.8,12.57,47.84626,-54.09684
2022-11-16 04:59:00+00:00,309.1964,8.8,12.57,47.84626,-54.09684
2022-11-16 05:09:00+00:00,309.4581,8.8,12.57,47.84626,-54.09684
2022-11-16 05:19:00+00:00,308.088,8.8,12.57,47.84626,-54.09684
2022-11-16 05:29:00+00:00,309.5897,8.8,12.57,47.84626,-54.09684
2022-11-16 05:39:00+00:00,312.548,8.8,12.57,47.84626,-54.09684
2022-11-16 05:49:00+00:00,308.7263,8.8,12.57,47.84626,-54.09684
2022-11-16 05:59:00+00:00,305.0114,8.8,12.57,47.84626,-54.09684
2022-11-16 06:09:00+00:00,305.8414,8.8,12.57,47.84626,-54.09684
2022-11-16 06:19:00+00:00,304.618,8.8,12.57,47.84626,-54.09684
2022-11-16 06:29:00+00:00,299.0247,8.8,12.57,47.84626,-54.09684
2022-11-16 06:39:00+00:00,294.9531,8.8,12.57,47.84626,-54.09684
2022-11-16 06:49:00+00:00,294.3163,8.8,12.57,47.84626,-54.09684
2022-11-16 06:59:00+00:00,288.2347,8.8,12.57,47.84626,-54.09684
2022-11-16 07:09:00+00:00,281.888,8.8,12.57,47.84626,-54.09684
2022-11-16 07:19:01+00:00,278.8297,8.7,12.57,47.84626,-54.09684
2022-11-16 07:29:01+00:00,278.258,8.6,12.57,47.84626,-54.09684
2022-11-16 07:39:01+00:00,273.5131,8.5,12.57,47.84626,-54.09684
2022-11-16 07:49:01+00:00,268.5997,8.54,12.57,47.84626,-54.09684
2022-11-16 07:59:01+00:00,263.748,8.5,12.57,47.84626,-54.09684
2022-11-16 08:09:01+00:00,253.6714,8.5,12.57,47.84626,-54.09684
2022-11-16 08:19:00+00:00,246.8681,8.5,12.57,47.84626,-54.09684
2022-11-16 08:29:00+00:00,246.2681,8.6,12.57,47.84626,-54.09684
2022-11-16 08:39:00+00:00,244.6048,8.5,12.57,47.84626,-54.09684
2022-11-16 08:49:00+00:00,239.3548,8.2,12.57,47.84626,-54.09684
2022-11-16 08:59:00+00:00,241.4581,8.45,12.57,47.84626,-54.09684
2022-11-16 09:09:00+00:00,241.9114,8.65,12.57,47.84626,-54.09684
2022-11-16 09:19:00+00:00,238.3048,8.64,12.57,47.84626,-54.09684
2022-11-16 09:29:00+00:00,236.5648,8.68,12.57,47.84626,-54.09684
2022-11-16 09:39:00+00:00,240.3264,8.7,12.57,47.84626,-54.09684
2022-11-16 09:49:00+00:00,236.5381,8.7,12.57,47.84626,-54.09684
2022-11-16 09:59:00+00:00,230.4348,8.7,12.57,47.84626,-54.09684
2022-11-16 10:09:00+00:00,232.5698,8.7,12.57,47.84626,-54.09684
2022-11-16 10:19:00+00:00,237.3881,8.7,12.57,47.84626,-54.09684
2022-11-16 10:29:00+00:00,233.1714,8.7,12.57,47.84626,-54.09684
2022-11-16 10:39:00+00:00,229.7564,8.7,12.57,47.84626,-54.09684
2022-11-16 10:49:00+00:00,231.4897,8.7,12.57,47.84626,-54.09684
2022-11-16 10:59:00+00:00,234.3264,8.7,12.57,47.84626,-54.09684
2022-11-16 11:09:00+00:00,236.8414,8.72,12.57,47.84626,-54.09684
2022-11-16 11:19:00+00:00,241.2981,8.76,12.57,47.84626,-54.09684
2022-11-16 11:29:00+00:00,245.2931,8.77,12.57,47.84626,-54.09684
2022-11-16 11:39:00+00:00,246.8097,8.79,12.57,47.84626,-54.09684
2022-11-16 11:49:00+00:00,246.3798,8.8,12.57,47.84626,-54.09684
2022-11-16 11:59:00+00:00,248.9564,8.79,12.57,47.84626,-54.09684
2022-11-16 12:09:00+00:00,251.1531,8.79,12.57,47.84626,-54.09684
2022-11-16 12:19:00+00:00,248.2581,8.8,12.73,47.84626,-54.09684
2022-11-16 12:29:00+00:00,247.5648,8.8,12.73,47.84626,-54.09684
2022-11-16 12:39:00+00:00,248.8114,8.8,12.73,47.84626,-54.09684
2022-11-16 12:49:00+00:00,248.5664,8.8,12.73,47.84626,-54.09684
2022-11-16 12:59:00+00:00,251.9398,8.8,12.73,47.84626,-54.09684
2022-11-16 13:09:00+00:00,258.7747,8.8,12.73,47.84626,-54.09684
2022-11-16 13:19:00+00:00,259.9214,8.8,14.0,47.84626,-54.09684
2022-11-16 13:29:00+00:00,262.2714,8.79,14.0,47.84626,-54.09684
2022-11-16 13:39:00+00:00,268.2264,8.79,14.0,47.84626,-54.09684
2022-11-16 13:49:00+00:00,268.5431,8.8,14.0,47.84626,-54.09684
2022-11-16 13:59:00+00:00,265.1997,8.8,14.0,47.84626,-54.09684
2022-11-16 14:09:00+00:00,270.8731,8.8,14.0,47.84626,-54.09684
2022-11-16 14:19:00+00:00,279.5214,8.79,13.37,47.84626,-54.09684
2022-11-16 14:29:00+00:00,286.6647,8.79,13.37,47.84626,-54.09684
2022-11-16 14:39:00+00:00,291.5197,8.8,13.37,47.84626,-54.09684
2022-11-16 14:49:00+00:00,297.6064,8.8,13.37,47.84626,-54.09684
2022-11-16 14:59:00+00:00,299.6196,8.8,13.37,47.84626,-54.09684
2022-11-16 15:09:00+00:00,301.433,8.8,13.37,47.84626,-54.09684
2022-11-16 15:19:00+00:00,301.7996,8.8,13.6,47.84626,-54.09684
2022-11-16 15:29:00+00:00,308.8563,8.8,13.6,47.84626,-54.09684
2022-11-16 15:39:00+00:00,316.4997,8.8,13.6,47.84626,-54.09684
2022-11-16 15:49:00+00:00,316.0964,8.8,13.6,47.84626,-54.09684
2022-11-16 15:59:00+00:00,313.8547,8.8,13.6,47.84626,-54.09684
2022-11-16 16:09:00+00:00,310.1031,8.8,13.6,47.84626,-54.09684
2022-11-16 16:19:01+00:00,310.4547,8.8,13.13,47.84626,-54.09684
2022-11-16 16:29:01+00:00,313.2031,8.8,13.13,47.84626,-54.09684
2022-11-16 16:39:01+00:00,318.5347,8.8,13.13,47.84626,-54.09684
2022-11-16 16:49:01+00:00,322.6613,8.83,13.13,47.84626,-54.09684
2022-11-16 16:59:01+00:00,321.3297,8.86,13.13,47.84626,-54.09684
2022-11-16 17:09:01+00:00,318.4396,8.87,13.13,47.84626,-54.09684
2022-11-16 17:19:00+00:00,317.4413,8.88,12.97,47.84626,-54.09684
2022-11-16 17:29:00+00:00,323.1763,8.89,12.97,47.84626,-54.09684
2022-11-16 17:39:00+00:00,328.30300000000005,8.89,12.97,47.84626,-54.09684
2022-11-16 17:49:00+00:00,322.0496,8.89,12.97,47.84626,-54.09684
2022-11-16 17:59:00+00:00,320.9014,8.81,12.97,47.84626,-54.09684
2022-11-16 18:09:00+00:00,329.2229,8.85,12.97,47.84626,-54.09684
2022-11-16 18:19:00+00:00,331.5630000000001,8.87,12.97,47.84626,-54.09684
2022-11-16 18:29:00+00:00,322.618,8.83,12.97,47.84626,-54.09684
2022-11-16 18:39:00+00:00,318.4563,8.8,12.97,47.84626,-54.09684
2022-11-16 18:49:00+00:00,323.7913,8.8,12.97,47.84626,-54.09684
2022-11-16 18:59:00+00:00,321.4396,8.8,12.97,47.84626,-54.09684
2022-11-16 19:09:00+00:00,310.5413,8.7,12.97,47.84626,-54.09684
2022-11-16 19:19:01+00:00,,8.7,12.81,47.84626,-54.09684
2022-11-16 19:29:01+00:00,,8.7,12.81,47.84626,-54.09684
2022-11-16 19:39:01+00:00,,8.7,12.81,47.84626,-54.09684
2022-11-16 19:49:01+00:00,,8.7,12.81,47.84626,-54.09684
2022-11-16 19:59:01+00:00,,8.7,12.81,47.84626,-54.09684
2022-11-16 20:09:01+00:00,,8.72,12.81,47.84626,-54.09684
2022-11-16 20:19:00+00:00,289.0497,8.76,12.65,47.84626,-54.09684
2022-11-16 20:29:00+00:00,290.1913,8.76,12.65,47.84626,-54.09684
2022-11-16 20:39:00+00:00,276.2513,8.7,12.65,47.84626,-54.09684
2022-11-16 20:49:00+00:00,264.9763,8.74,12.65,47.84626,-54.09684
2022-11-16 20:59:00+00:00,265.7414,8.74,12.65,47.84626,-54.09684
2022-11-16 21:09:00+00:00,261.3114,8.77,12.65,47.84626,-54.09684
2022-11-16 21:19:00+00:00,252.4698,8.79,12.65,47.84626,-54.09684
2022-11-16 21:29:00+00:00,259.1347,8.8,12.65,47.84626,-54.09684
2022-11-16 21:39:00+00:00,260.1714,8.8,12.65,47.84626,-54.09684
2022-11-16 21:49:00+00:00,258.4231,8.8,12.65,47.84626,-54.09684
2022-11-16 21:59:00+00:00,255.1781,8.8,12.65,47.84626,-54.09684
2022-11-16 22:09:00+00:00,258.9881,8.8,12.65,47.84626,-54.09684
2022-11-16 22:19:01+00:00,258.1764,8.8,12.57,47.84626,-54.09684
2022-11-16 22:29:01+00:00,254.5464,8.8,12.57,47.84626,-54.09684
2022-11-16 22:39:01+00:00,245.4164,8.8,12.57,47.84626,-54.09684
2022-11-16 22:49:01+00:00,241.6914,8.82,12.57,47.84626,-54.09684
2022-11-16 22:59:01+00:00,237.2764,8.85,12.57,47.84626,-54.09684
2022-11-16 23:09:01+00:00,243.2131,8.8,12.57,47.84626,-54.09684
2022-11-16 23:19:00+00:00,246.6364,8.8,12.57,47.84626,-54.09684
2022-11-16 23:29:00+00:00,241.9597,8.8,12.57,47.84626,-54.09684
2022-11-16 23:39:00+00:00,241.4714,8.8,12.57,47.84626,-54.09684
2022-11-16 23:49:00+00:00,252.3981,8.8,12.57,47.84626,-54.09684
2022-11-16 23:59:00+00:00,253.7431,8.8,12.57,47.84626,-54.09684
